Regional Weather Roundup
Issued by NWS

Home | Current Version | Previous Version | Graphics & Text | Print | Product List | Glossary On
Versions: 1 2 3 4 5 6 7 8 9 10 11 12 13 14 15 16 17 18 19 20 21 22 23 24 25 26 27 28 29 30 31 32 33 34 35 36 37 38 39 40 41 42 43 44 45 46 47 48 49 50
305
ASUS43 KLSX 292259
RWRMO

WEATHER SUMMARY FOR MISSOURI
NATIONAL WEATHER SERVICE SPRINGFIELD MO
600 PM CDT SAT APR 29 2017

NOTE: "FAIR" INDICATES FEW OR NO CLOUDS BELOW 12,000 FEET WITH NO
       SIGNIFICANT WEATHER AND/OR OBSTRUCTIONS TO VISIBILITY.
       CURRENT SKY AND/OR WEATHER CONDITIONS ARE NOT AVAILABLE FOR
       CHILLICOTHE AND FARMINGTON.

MOZ001>031-035>038-043-044-053-054-300000-
...NORTHERN AND WESTERN MISSOURI...

CITY           SKY/WX    TMP DP  RH WIND       PRES   REMARKS
KANSAS CTY INT LGT RAIN  46  45  96 N10       29.86R
KANSAS C DTWN  LGT RAIN  48  46  93 NE12      29.85R
LEE`S SUMMIT   RAIN      48  48 100 NE7       29.83R FOG
ST JOSEPH      CLOUDY    46  44  93 NE15G24   29.90R
CHILLICOTHE      N/A     45  42  89 E9G16     29.84R
KIRKSVILLE     CLOUDY    42  30  62 E23G35    29.82F

$$
MOZ066>068-077>081-088>096-101>105-300000-
...SOUTHWEST MISSOURI...

CITY           SKY/WX    TMP DP  RH WIND       PRES   REMARKS
SPRINGFIELD    TSTM      59  58  96 E14       29.76R FOG
JOPLIN         TSTM      58  57  97 E6        29.67R
BRANSON        TSTM      63  63 100 E12       29.75R FOG

$$
MOZ032>034-039>042-045>050-055>058-069>072-300000-
...CENTRAL MISSOURI...

CITY           SKY/WX    TMP DP  RH WIND       PRES   REMARKS
COLUMBIA       RAIN      48  47  96 NE18G24   29.80F
JEFFERSON CITY RAIN      52  47  83 NE13G22   29.80F
ROLLA          TSTM      53  32  44 NE6       29.84R
SEDALIA        LGT RAIN  49  49 100 E8        29.82F
OSAGE BEACH    RAIN      52  52 100 NE9       29.82R

$$
MOZ051-052-059>065-300000-
...EAST CENTRAL MISSOURI...

CITY           SKY/WX    TMP DP  RH WIND       PRES   REMARKS
ST LOUIS INTL  RAIN      60  57  89 NW15      29.85R FOG
SPIRIT OF STL  TSTM      56  55  97 NW10      29.86R FOG
ST CHARLES     RAIN      56  55  97 W14       29.87R FOG

$$
MOZ072>076-082>087-097>100-106>115-300000-
...SOUTH CENTRAL AND SOUTHEAST MISSOURI...

CITY           SKY/WX    TMP DP  RH WIND       PRES   REMARKS
CAPE GIRARDEAU CLOUDY    82  68  62 S9        29.82R THUNDER
FARMINGTON     TSTM      61  60  97 SE3       29.89R
POPLAR BLUFF   CLOUDY    83  69  62 S10       29.79R
WEST PLAINS    TSTM      63  62  97 NE7       29.84S VSB 1/2

$$




USA.gov is the U.S. government's official web portal to all federal, state and local government web resources and services.